N5LOC Weather Reports


Display with metric or nautical units.
time (UTC)temp
F
wind
direction
speed
MPH
gust
MPH
rain 1hr
in
rain 24hr
in
rain mn
in
humidity
%
barometer
mb
20260509053022 71 13 0.0 1.0 0.00 0.01 0.00 86 1012.2
20260509050031 71 5 0.0 3.0 0.00 0.01 0.00 85 1011.1
20260509043020 72 195 1.0 6.0 0.00 0.01 0.01 83 1010.9
20260509040022 72 66 0.0 0.0 0.00 0.01 0.01 82 1012.0
20260509033022 72 142 0.0 0.0 0.00 0.01 0.01 82 1011.6
20260509030019 72 155 0.0 2.0 0.00 0.01 0.01 82 1011.1
20260509023020 73 160 1.0 3.0 0.00 0.01 0.01 81 1010.4
20260509020023 73 272 1.0 4.0 0.00 0.01 0.01 80 1010.3
20260509013024 73 152 0.0 1.0 0.00 0.01 0.01 80 1010.0
20260509010019 73 163 0.0 5.0 0.00 0.01 0.01 79 1009.7
20260509003020 74 235 3.0 6.0 0.00 0.01 0.01 77 1009.3
20260509000022 74 110 1.0 6.0 0.00 0.01 0.01 75 1009.7
20260508233023 76 144 2.0 6.0 0.00 0.01 0.01 71 1009.9
20260508230025 76 133 1.0 6.0 0.00 0.01 0.01 72 1010.1
20260508223020 78 215 3.0 8.0 0.00 0.01 0.01 70 1009.8
20260508220022 78 123 2.0 8.0 0.00 0.01 0.01 71 1009.8
20260508213021 77 84 3.0 6.0 0.00 0.01 0.01 72 1009.5
20260508210020 74 214 1.0 5.0 0.00 0.01 0.01 75 1011.0
20260508203020 75 198 1.0 6.0 0.00 0.01 0.01 71 1011.8
20260508200023 78 222 3.0 7.0 0.00 0.01 0.01 67 1011.8
20260508193022 80 88 2.0 9.0 0.00 0.01 0.01 65 1011.9
20260508190026 79 105 3.0 7.0 0.00 0.01 0.01 66 1012.2
20260508183026 78 105 1.0 5.0 0.00 0.01 0.01 66 1012.6
20260508180025 77 165 1.0 8.0 0.00 0.01 0.01 66 1013.1
20260508173031 75 75 4.0 8.0 0.00 0.01 0.01 67 1013.6
20260508170019 75 198 2.0 7.0 0.00 0.01 0.01 69 1014.3
20260508163021 73 340 1.0 6.0 0.00 0.01 0.01 70 1014.8
20260508160019 72 127 1.0 10.0 0.00 0.01 0.01 70 1015.1
20260508153020 69 147 1.0 6.0 0.00 0.01 0.01 72 1015.3
20260508150022 70 82 2.0 7.0 0.00 0.01 0.01 71 1015.3
20260508143032 69 204 2.0 5.0 0.00 0.01 0.01 74 1015.5
20260508140024 67 160 1.0 3.0 0.00 0.01 0.01 76 1015.8
20260508133048 64 150 0.0 3.0 0.00 0.01 0.01 84 1015.8